Find Starlink 5701

NORAD ID: 55487 Int'l Des: 2023-015 Owner: SPXS Country: US Constellation: starlink operational
LEOCIRCULAR

現在のビュー

3D地球を読み込み中...

Starlink 5701について

説明を読み込み中...

次回通過

Passes for default location (London). Set your location on the main map for personalized predictions.

高度履歴

Loading altitude history...

軌道要素

1 55487U 23015AQ 26148.58356472 -.00000203 00000-0 21311-5 0 9990
2 55487 43.0022 248.5670 0001032 276.9057 83.1678 15.27575215182819
Epoch: May 28, 2026 • Age: 38 hours

現在のステータス

高度 483.8 km
速度 7.62 km/s
衛星直下点 -5.37°S, 110.26°E
打ち上げ日 Feb 2, 2023
運用期間 3.3 years
タイプ internet

技術仕様

分類 Payload
質量 305.00 kg
乾燥質量 290.00 kg
総質量 305.00 kg
長さ 0.20 m
直径 2.80 m
スパン 9.00 m
形状 Box + pan
製造者 SPXS
バスタイプ Starlink
フェーズステータス In Orbit
所有者/国 SPXS/US

Most Searched